Regional Weather Roundup
Issued by NWS

Home | Current Version | Previous Version | Graphics & Text | Print | Product List | Glossary On
Versions: 1 2 3 4 5 6 7 8 9 10 11 12 13 14 15 16 17 18 19 20 21 22 23 24 25 26 27 28 29 30 31 32 33 34 35 36 37 38 39 40 41 42 43 44 45 46 47 48 49 50
000
ASUS45 KABQ 261410
RWRNM
NEW MEXICO REGIONAL WEATHER ROUNDUP
NATIONAL WEATHER SERVICE ALBUQUERQUE NM
800 AM MDT THU MAY 26 2016

NOTE: "FAIR" MEANS FEW OR NO CLOUDS BELOW 12,000 FEET AGL WITH NO
       SIGNIFICANT WEATHER OR OBSTRUCTIONS TO VISION.

      THIS PRODUCT IS RELEASED AS TWO VERSIONS.  ONE VERSION NEAR
      THE TOP OF THE HOUR CONTAINING PRELIMINARY DATA FROM ALBUQUERQUE
      AND OTHER STATIONS.  A FINAL VERSION WITH ADDITIONAL DATA IS
      ISSUED ABOUT 10 MINUTES AFTER THE HOUR.

NMZ501-503-504-510>518-261500-
NORTHWEST PLATEAU/NORTHCENTRAL MOUNTAINS

CITY           SKY/WX    TMP DP  RH WIND       PRES   REMARKS
FARMINGTON     CLOUDY    53  23  31 E7        29.99R
LOS ALAMOS     FAIR      55  23  28 E3        30.03F
SANTA FE       FAIR      56  19  23 S6        29.99F
TAOS           FAIR      50  25  37 NW5       30.03F
ANGEL FIRE     FAIR      38  26  62 CALM      30.09F

$$
NMZ402-403-502-505>509-261500-
WESTCENTRAL MOUNTAINS/SOUTHWEST MOUNTAINS

CITY           SKY/WX    TMP DP  RH WIND       PRES   REMARKS
GALLUP         FAIR      51  18  27 SW7       30.05R
GRANTS         FAIR      49  19  29 N3        30.06S
SILVER CITY      N/A     57  21  24 NW14      30.06S

$$
NMZ407-409-411-412-261500-
SOUTHERN DESERTS

CITY           SKY/WX    TMP DP  RH WIND       PRES   REMARKS
LORDSBURG      FAIR      59  21  23 CALM      30.02S
DEMING         FAIR      62  24  23 W7        30.02S
LAS CRUCES     FAIR      65  24  21 SW12      30.02S
HOLLOMAN AFB   FAIR      71  23  16 SW6       29.98S
ALAMOGORDO     FAIR      68  25  19 S7        30.00S
T OR C         FAIR      63  21  20 W7        29.99R

$$
NMZ519>523-261500-
CENTRAL VALLEYS/CENTRAL HIGHLANDS

CITY           SKY/WX    TMP DP  RH WIND       PRES   REMARKS
ALBUQUERQUE    FAIR      59  18  20 S6        29.99S
DOUBLE EAGLE   MOSUNNY   57  21  24 CALM      30.00F
MORIARTY ARPT  FAIR      55  19  24 S6        30.02S
CLINES CORNERS FAIR      56  18  22 SW15      30.01S
BELEN          FAIR      60  17  19 CALM      29.99R
SOCORRO        FAIR      66  19  16 S5        29.98S

$$
NMZ524>526-539-540-261500-
SOUTHCENTRAL MOUNTAINS

CITY           SKY/WX    TMP DP  RH WIND       PRES   REMARKS
RUIDOSO          N/A     59  19  21 SW18G24   30.08S

$$
NMZ527>531-261500-
NORTHEAST HIGHLANDS/NORTHEAST PLAINS

CITY           SKY/WX    TMP DP  RH WIND       PRES   REMARKS
LAS VEGAS      FAIR      54  26  34 N5        30.00F
RATON          FAIR      58  27  30 E8        29.97S
CLAYTON        FAIR      70  28  21 N13       29.89F

$$
NMZ532>537-261500-
EASTCENTRAL PLAINS

CITY           SKY/WX    TMP DP  RH WIND       PRES   REMARKS
TUCUMCARI      FAIR      71  25  17 W10       29.87S
CANNON AFB     PTSUNNY   68  38  33 W13       29.92R
CLOVIS AIRPORT FAIR      66  46  48 SW13      29.91R

$$
NMZ028-029-538-261500-
SOUTHEAST PLAINS

CITY           SKY/WX    TMP DP  RH WIND       PRES   REMARKS
ROSWELL        FAIR      75  25  15 W6        29.91S
ARTESIA        FAIR      70  28  21 CALM      29.92S
CARLSBAD       FAIR      80  22  11 W20       29.90R
HOBBS          SUNNY     73  39  29 SW10      29.93S


$$




USA.gov is the U.S. government's official web portal to all federal, state and local government web resources and services.